Time,TemperatureF,DewpointF,PressureIn,WindDirection,WindDirectionDegrees,WindSpeedMPH,WindSpeedGustMPH,Humidity,HourlyPrecipIn,Conditions,Clouds,dailyrainin,SoftwareType,DateUTC
2013-05-07 00:02:00,73.0,40.0,27.68,NW,309,9.0,17.0,30,0.00,,,0.00,,2013-05-07 07:02:00,
2013-05-07 00:11:00,73.0,40.0,27.68,NW,309,9.0,17.0,30,0.00,,,0.00,,2013-05-07 07:11:00,
2013-05-07 00:22:00,72.0,40.0,27.69,West,276,10.0,17.0,31,0.00,,,0.00,,2013-05-07 07:22:00,
2013-05-07 00:31:00,71.0,40.0,27.69,WNW,295,8.0,16.0,32,0.00,,,0.00,,2013-05-07 07:31:00,
2013-05-07 00:42:00,71.0,40.0,27.69,WNW,295,8.0,16.0,32,0.00,,,0.00,,2013-05-07 07:42:00,
2013-05-07 00:52:00,71.0,40.0,27.73,NNW,342,11.0,18.0,33,0.00,,,0.00,,2013-05-07 07:52:00,
2013-05-07 01:02:00,69.0,39.0,27.69,NW,304,10.0,20.0,34,0.00,,,0.00,,2013-05-07 08:02:00,
2013-05-07 01:11:00,69.0,39.0,27.69,NW,304,10.0,20.0,34,0.00,,,0.00,,2013-05-07 08:11:00,
2013-05-07 01:21:00,69.0,40.0,27.74,WNW,301,10.0,18.0,35,0.00,,,0.00,,2013-05-07 08:21:00,
2013-05-07 01:31:00,68.0,40.0,27.70,NW,307,9.0,19.0,36,0.00,,,0.00,,2013-05-07 08:31:00,
2013-05-07 01:41:00,68.0,40.0,27.70,NW,307,9.0,19.0,36,0.00,,,0.00,,2013-05-07 08:41:00,
2013-05-07 01:52:00,67.0,41.0,27.75,SW,236,8.0,18.0,38,0.00,,,0.00,,2013-05-07 08:52:00,
2013-05-07 02:01:00,66.0,40.0,27.70,NNW,338,10.0,17.0,38,0.00,,,0.00,,2013-05-07 09:01:00,
2013-05-07 02:11:00,66.0,40.0,27.70,NNW,338,10.0,17.0,38,0.00,,,0.00,,2013-05-07 09:11:00,
2013-05-07 02:22:00,65.0,39.0,27.71,WNW,285,7.0,20.0,39,0.00,,,0.00,,2013-05-07 09:22:00,
2013-05-07 02:33:00,65.0,40.0,27.71,WNW,302,10.0,18.0,40,0.00,,,0.00,,2013-05-07 09:33:00,
2013-05-07 02:42:00,65.0,40.0,27.71,WNW,302,10.0,18.0,40,0.00,,,0.00,,2013-05-07 09:42:00,
2013-05-07 02:52:00,65.0,40.0,27.70,NW,308,9.0,17.0,40,0.00,,,0.00,,2013-05-07 09:52:00,
2013-05-07 03:02:00,65.0,41.0,27.70,WNW,302,8.0,17.0,41,0.00,,,0.00,,2013-05-07 10:02:00,
2013-05-07 03:12:00,65.0,41.0,27.70,WNW,302,8.0,17.0,41,0.00,,,0.00,,2013-05-07 10:12:00,
2013-05-07 03:22:00,64.0,40.0,27.71,North,349,8.0,17.0,42,0.00,,,0.00,,2013-05-07 10:22:00,
2013-05-07 03:32:00,63.0,40.0,27.71,WSW,250,11.0,20.0,43,0.00,,,0.00,,2013-05-07 10:32:00,
2013-05-07 03:42:00,63.0,40.0,27.71,WSW,250,11.0,20.0,43,0.00,,,0.00,,2013-05-07 10:42:00,
2013-05-07 03:52:00,63.0,40.0,27.71,WNW,287,8.0,19.0,43,0.00,,,0.00,,2013-05-07 10:52:00,
2013-05-07 04:02:00,63.0,40.0,27.71,West,259,5.0,17.0,42,0.00,,,0.00,,2013-05-07 11:02:00,
2013-05-07 04:11:00,63.0,40.0,27.71,West,259,5.0,17.0,42,0.00,,,0.00,,2013-05-07 11:11:00,
2013-05-07 04:21:00,63.0,41.0,27.72,WNW,284,6.0,14.0,44,0.00,,,0.00,,2013-05-07 11:21:00,
2013-05-07 04:32:00,62.0,41.0,27.73,NW,304,1.0,6.0,46,0.00,,,0.00,,2013-05-07 11:32:00,
2013-05-07 04:42:00,62.0,41.0,27.73,NW,304,1.0,6.0,46,0.00,,,0.00,,2013-05-07 11:42:00,
2013-05-07 04:51:00,62.0,40.0,27.73,WNW,291,5.0,11.0,45,0.00,,,0.00,,2013-05-07 11:51:00,
2013-05-07 05:01:00,62.0,40.0,27.73,North,351,5.0,10.0,45,0.00,,,0.00,,2013-05-07 12:01:00,
2013-05-07 05:11:00,62.0,40.0,27.73,North,351,5.0,10.0,45,0.00,,,0.00,,2013-05-07 12:11:00,
2013-05-07 05:21:00,61.0,40.0,27.73,West,277,5.0,11.0,45,0.00,,,0.00,,2013-05-07 12:21:00,
2013-05-07 05:32:00,61.0,40.0,27.73,WNW,297,6.0,16.0,45,0.00,,,0.00,,2013-05-07 12:32:00,
2013-05-07 05:41:00,61.0,40.0,27.73,WNW,297,6.0,16.0,45,0.00,,,0.00,,2013-05-07 12:41:00,
2013-05-07 05:52:00,60.0,40.0,27.73,NNW,332,2.0,11.0,48,0.00,,,0.00,,2013-05-07 12:52:00,
2013-05-07 06:02:00,60.0,40.0,27.74,WNW,302,5.0,10.0,48,0.00,,,0.00,,2013-05-07 13:02:00,
2013-05-07 06:11:00,60.0,40.0,27.74,WNW,302,5.0,10.0,48,0.00,,,0.00,,2013-05-07 13:11:00,
2013-05-07 06:21:00,57.0,41.0,27.74,SW,224,1.0,3.0,54,0.00,,,0.00,,2013-05-07 13:21:00,
2013-05-07 06:32:00,57.0,41.0,27.74,WSW,240,2.0,9.0,54,0.00,,,0.00,,2013-05-07 13:32:00,
2013-05-07 06:42:00,57.0,41.0,27.74,WSW,240,2.0,9.0,54,0.00,,,0.00,,2013-05-07 13:42:00,
2013-05-07 06:52:00,60.0,41.0,27.74,WSW,255,4.0,8.0,49,0.00,,,0.00,,2013-05-07 13:52:00,
2013-05-07 07:01:00,61.0,42.0,27.75,WSW,248,1.0,5.0,49,0.00,,,0.00,,2013-05-07 14:01:00,
2013-05-07 07:11:00,61.0,42.0,27.75,WSW,248,1.0,5.0,49,0.00,,,0.00,,2013-05-07 14:11:00,
2013-05-07 07:21:00,62.0,42.0,27.75,WNW,292,7.0,12.0,47,0.00,,,0.00,,2013-05-07 14:21:00,
2013-05-07 07:31:00,62.0,42.0,27.76,West,276,7.0,12.0,48,0.00,,,0.00,,2013-05-07 14:31:00,
2013-05-07 07:42:00,62.0,42.0,27.76,West,276,7.0,12.0,48,0.00,,,0.00,,2013-05-07 14:42:00,
2013-05-07 07:52:00,62.0,42.0,27.76,WNW,303,6.0,15.0,48,0.00,,,0.00,,2013-05-07 14:52:00,
2013-05-07 08:01:00,63.0,43.0,27.76,NW,305,3.0,9.0,48,0.00,,,0.00,,2013-05-07 15:01:00,
2013-05-07 08:12:00,63.0,43.0,27.76,NW,305,3.0,9.0,48,0.00,,,0.00,,2013-05-07 15:12:00,
2013-05-07 08:21:00,64.0,43.0,27.76,North,353,1.0,8.0,47,0.00,,,0.00,,2013-05-07 15:21:00,
2013-05-07 08:33:00,65.0,43.0,27.76,NW,319,5.0,10.0,45,0.00,,,0.00,,2013-05-07 15:33:00,
2013-05-07 08:42:00,65.0,43.0,27.76,NW,319,5.0,10.0,45,0.00,,,0.00,,2013-05-07 15:42:00,
2013-05-07 08:52:00,65.0,43.0,27.76,NW,319,5.0,10.0,45,0.00,,,0.00,,2013-05-07 15:52:00,
2013-05-07 09:03:00,66.0,43.0,27.77,NNE,15,3.0,7.0,44,0.00,,,0.00,,2013-05-07 16:03:00,
2013-05-07 09:12:00,66.0,43.0,27.77,NNE,15,3.0,7.0,44,0.00,,,0.00,,2013-05-07 16:12:00,
2013-05-07 09:22:00,67.0,45.0,27.77,West,281,3.0,8.0,45,0.00,,,0.00,,2013-05-07 16:22:00,
2013-05-07 09:32:00,69.0,47.0,27.77,NE,37,0.0,3.0,46,0.00,,,0.00,,2013-05-07 16:32:00,
2013-05-07 09:41:00,69.0,47.0,27.77,NE,37,0.0,3.0,46,0.00,,,0.00,,2013-05-07 16:41:00,
2013-05-07 09:51:00,69.0,47.0,27.77,NE,37,0.0,3.0,46,0.00,,,0.00,,2013-05-07 16:51:00,
2013-05-07 10:01:00,72.0,47.0,27.76,ESE,115,0.0,3.0,41,0.00,,,0.00,,2013-05-07 17:01:00,
2013-05-07 10:12:00,72.0,47.0,27.76,ESE,115,0.0,3.0,41,0.00,,,0.00,,2013-05-07 17:12:00,
2013-05-07 10:21:00,73.0,47.0,27.81,NE,44,1.0,4.0,40,0.00,,,0.00,,2013-05-07 17:21:00,
2013-05-07 10:31:00,72.0,47.0,27.76,SE,139,1.0,3.0,41,0.00,,,0.00,,2013-05-07 17:31:00,
2013-05-07 10:41:00,72.0,47.0,27.76,SE,139,1.0,3.0,41,0.00,,,0.00,,2013-05-07 17:41:00,
2013-05-07 10:52:00,72.0,47.0,27.76,SE,139,1.0,3.0,41,0.00,,,0.00,,2013-05-07 17:52:00,
2013-05-07 11:01:00,74.0,49.0,27.76,ESE,117,1.0,3.0,42,0.00,,,0.00,,2013-05-07 18:01:00,
2013-05-07 11:11:00,74.0,49.0,27.76,ESE,117,1.0,3.0,42,0.00,,,0.00,,2013-05-07 18:11:00,
2013-05-07 11:21:00,74.0,48.0,27.76,ESE,115,0.0,3.0,40,0.00,,,0.00,,2013-05-07 18:21:00,
2013-05-07 11:31:00,75.0,50.0,27.75,NE,51,0.0,3.0,41,0.00,,,0.00,,2013-05-07 18:31:00,
2013-05-07 11:41:00,75.0,50.0,27.75,NE,51,0.0,3.0,41,0.00,,,0.00,,2013-05-07 18:41:00,
2013-05-07 11:51:00,78.0,50.0,27.75,NNE,29,0.0,2.0,38,0.00,,,0.00,,2013-05-07 18:51:00,
2013-05-07 12:02:00,78.0,50.0,27.75,East,100,0.0,2.0,37,0.00,,,0.00,,2013-05-07 19:02:00,
2013-05-07 12:31:00,81.0,51.0,27.73,ESE,113,1.0,3.0,35,0.00,,,0.00,,2013-05-07 19:31:00,
2013-05-07 12:52:00,82.0,48.0,27.73,East,83,0.0,2.0,31,0.00,,,0.00,,2013-05-07 19:52:00,
2013-05-07 13:01:00,84.0,49.0,27.73,SE,132,1.0,3.0,30,0.00,,,0.00,,2013-05-07 20:01:00,
2013-05-07 13:11:00,84.0,49.0,27.73,SE,132,1.0,3.0,30,0.00,,,0.00,,2013-05-07 20:11:00,
2013-05-07 13:21:00,86.0,51.0,27.72,NNW,338,0.0,2.0,30,0.00,,,0.00,,2013-05-07 20:21:00,
2013-05-07 13:32:00,87.0,46.0,27.72,ENE,73,2.0,4.0,24,0.00,,,0.00,,2013-05-07 20:32:00,
2013-05-07 13:41:00,87.0,46.0,27.72,ENE,73,2.0,4.0,24,0.00,,,0.00,,2013-05-07 20:41:00,
2013-05-07 13:51:00,88.0,49.0,27.72,ESE,108,0.0,3.0,26,0.00,,,0.00,,2013-05-07 20:51:00,
2013-05-07 14:01:00,87.0,47.0,27.72,NE,47,1.0,4.0,25,0.00,,,0.00,,2013-05-07 21:01:00,
2013-05-07 14:11:00,87.0,47.0,27.72,NE,47,1.0,4.0,25,0.00,,,0.00,,2013-05-07 21:11:00,
2013-05-07 14:21:00,89.0,46.0,27.72,ESE,117,0.0,5.0,23,0.00,,,0.00,,2013-05-07 21:21:00,
2013-05-07 14:32:00,90.0,49.0,27.71,SE,143,0.0,4.0,25,0.00,,,0.00,,2013-05-07 21:32:00,
2013-05-07 14:52:00,90.0,45.0,27.71,ESE,112,2.0,5.0,21,0.00,,,0.00,,2013-05-07 21:52:00,
2013-05-07 15:02:00,90.0,48.0,27.71,SE,132,0.0,5.0,24,0.00,,,0.00,,2013-05-07 22:02:00,
2013-05-07 15:32:00,91.0,48.0,27.69,WNW,302,0.0,4.0,23,0.00,,,0.00,,2013-05-07 22:32:00,
2013-05-07 15:52:00,92.0,46.0,27.69,West,266,1.0,4.0,21,0.00,,,0.00,,2013-05-07 22:52:00,
2013-05-07 16:02:00,91.0,44.0,27.68,WSW,245,1.0,3.0,20,0.00,,,0.00,,2013-05-07 23:02:00,
2013-05-07 16:11:00,91.0,44.0,27.68,WSW,245,1.0,3.0,20,0.00,,,0.00,,2013-05-07 23:11:00,
2013-05-07 16:21:00,92.0,45.0,27.68,SE,146,0.0,2.0,20,0.00,,,0.00,,2013-05-07 23:21:00,
2013-05-07 16:32:00,93.0,45.0,27.68,NW,325,0.0,2.0,19,0.00,,,0.00,,2013-05-07 23:32:00,
2013-05-07 16:41:00,93.0,45.0,27.68,NW,325,0.0,2.0,19,0.00,,,0.00,,2013-05-07 23:41:00,
2013-05-07 16:52:00,93.0,48.0,27.67,SE,136,0.0,2.0,22,0.00,,,0.00,,2013-05-07 23:52:00,
2013-05-07 17:01:00,93.0,46.0,27.67,SSE,162,0.0,2.0,20,0.00,,,0.00,,2013-05-08 00:01:00,
2013-05-07 17:11:00,93.0,46.0,27.67,SSE,162,0.0,2.0,20,0.00,,,0.00,,2013-05-08 00:11:00,
2013-05-07 17:21:00,93.0,43.0,27.67,WNW,288,0.0,2.0,18,0.00,,,0.00,,2013-05-08 00:21:00,
2013-05-07 17:32:00,93.0,47.0,27.66,ESE,123,0.0,2.0,21,0.00,,,0.00,,2013-05-08 00:32:00,
2013-05-07 17:41:00,93.0,47.0,27.66,ESE,123,0.0,2.0,21,0.00,,,0.00,,2013-05-08 00:41:00,
2013-05-07 17:51:00,93.0,46.0,27.67,ESE,119,0.0,2.0,20,0.00,,,0.00,,2013-05-08 00:51:00,
2013-05-07 18:02:00,93.0,42.0,27.66,NW,323,1.0,3.0,17,0.00,,,0.00,,2013-05-08 01:02:00,
2013-05-07 18:11:00,93.0,42.0,27.66,NW,323,1.0,3.0,17,0.00,,,0.00,,2013-05-08 01:11:00,
2013-05-07 18:21:00,93.0,43.0,27.66,WNW,297,0.0,2.0,18,0.00,,,0.00,,2013-05-08 01:21:00,
2013-05-07 18:31:00,93.0,46.0,27.66,West,273,0.0,2.0,20,0.00,,,0.00,,2013-05-08 01:31:00,
2013-05-07 18:42:00,93.0,46.0,27.66,West,273,0.0,2.0,20,0.00,,,0.00,,2013-05-08 01:42:00,
2013-05-07 18:52:00,94.0,47.0,27.66,WSW,240,0.0,1.0,20,0.00,,,0.00,,2013-05-08 01:52:00,
2013-05-07 19:01:00,94.0,47.0,27.66,WSW,239,0.0,0.0,20,0.00,,,0.00,,2013-05-08 02:01:00,
2013-05-07 19:12:00,94.0,47.0,27.66,WSW,239,0.0,0.0,20,0.00,,,0.00,,2013-05-08 02:12:00,
2013-05-07 19:31:00,89.0,51.0,27.67,WNW,291,0.0,2.0,27,0.00,,,0.00,,2013-05-08 02:31:00,
2013-05-07 19:51:00,86.0,46.0,27.68,SW,224,0.0,2.0,25,0.00,,,0.00,,2013-05-08 02:51:00,
2013-05-07 20:01:00,84.0,48.0,27.68,WNW,291,4.0,11.0,29,0.00,,,0.00,,2013-05-08 03:01:00,
2013-05-07 20:11:00,84.0,48.0,27.68,WNW,291,4.0,11.0,29,0.00,,,0.00,,2013-05-08 03:11:00,
2013-05-07 20:21:00,83.0,47.0,27.69,West,278,4.0,11.0,29,0.00,,,0.00,,2013-05-08 03:21:00,
2013-05-07 20:32:00,82.0,48.0,27.69,WNW,293,7.0,10.0,31,0.00,,,0.00,,2013-05-08 03:32:00,
2013-05-07 20:43:00,82.0,48.0,27.69,WNW,293,7.0,10.0,31,0.00,,,0.00,,2013-05-08 03:43:00,
2013-05-07 20:52:00,81.0,48.0,27.70,West,281,7.0,14.0,32,0.00,,,0.00,,2013-05-08 03:52:00,
2013-05-07 21:02:00,81.0,48.0,27.70,NW,309,10.0,16.0,32,0.00,,,0.00,,2013-05-08 04:02:00,
2013-05-07 21:12:00,81.0,48.0,27.70,NW,309,10.0,16.0,32,0.00,,,0.00,,2013-05-08 04:12:00,
2013-05-07 21:22:00,81.0,48.0,27.71,WNW,294,10.0,16.0,32,0.00,,,0.00,,2013-05-08 04:22:00,
2013-05-07 21:33:00,80.0,48.0,27.72,WNW,282,11.0,17.0,33,0.00,,,0.00,,2013-05-08 04:33:00,
2013-05-07 21:42:00,80.0,48.0,27.72,WNW,282,11.0,17.0,33,0.00,,,0.00,,2013-05-08 04:42:00,
2013-05-07 21:52:00,79.0,48.0,27.72,WNW,285,10.0,15.0,34,0.00,,,0.00,,2013-05-08 04:52:00,
2013-05-07 22:02:00,79.0,49.0,27.73,West,274,10.0,17.0,35,0.00,,,0.00,,2013-05-08 05:02:00,
2013-05-07 22:12:00,79.0,49.0,27.73,West,274,10.0,17.0,35,0.00,,,0.00,,2013-05-08 05:12:00,
2013-05-07 22:22:00,78.0,49.0,27.73,WNW,302,10.0,16.0,36,0.00,,,0.00,,2013-05-08 05:22:00,
2013-05-07 22:32:00,78.0,50.0,27.74,WNW,288,12.0,23.0,37,0.00,,,0.00,,2013-05-08 05:32:00,
2013-05-07 22:42:00,78.0,50.0,27.74,WNW,288,12.0,23.0,37,0.00,,,0.00,,2013-05-08 05:42:00,
2013-05-07 22:52:00,77.0,49.0,27.75,WNW,295,11.0,20.0,38,0.00,,,0.00,,2013-05-08 05:52:00,
2013-05-07 23:01:00,76.0,49.0,27.75,WNW,287,10.0,16.0,39,0.00,,,0.00,,2013-05-08 06:01:00,
2013-05-07 23:11:00,76.0,49.0,27.75,WNW,287,10.0,16.0,39,0.00,,,0.00,,2013-05-08 06:11:00,
2013-05-07 23:21:00,76.0,49.0,27.76,NW,309,9.0,18.0,39,0.00,,,0.00,,2013-05-08 06:21:00,
2013-05-07 23:32:00,76.0,49.0,27.76,WNW,298,9.0,17.0,39,0.00,,,0.00,,2013-05-08 06:32:00,
2013-05-07 23:41:00,76.0,49.0,27.76,WNW,298,9.0,17.0,39,0.00,,,0.00,,2013-05-08 06:41:00,
2013-05-07 23:51:00,75.0,50.0,27.77,WNW,295,11.0,21.0,41,0.00,,,0.00,,2013-05-08 06:51:00,